This is the latest recevied weather packets stored in our database for station/object OE-11152. If no packets are shown the sender has not sent any weather packets the latest 10 day(s).
| Time | Temp. | Humidity | Pressure | Rain* | Wind** | Luminosity | Snow |
|---|---|---|---|---|---|---|---|
| 1787830891 | 24.44° C | 70% | 1013.4 hPa | 0 mm | - | 735 W/m² | - |
| 1787830517 | 24.44° C | 70% | 1013.5 hPa | 0 mm | - | 728 W/m² | - |
| 1787829917 | 23.89° C | 72% | 1013.4 hPa | 0 mm | - | 728 W/m² | - |
| 1787829091 | 23.33° C | 71% | 1013.8 hPa | 0 mm | - | 688 W/m² | - |
| 1787828718 | 23.33° C | 71% | 1013.9 hPa | 0 mm | - | 735 W/m² | - |
| 1787828118 | 23.33° C | 73% | 1013.7 hPa | 0 mm | - | 634 W/m² | - |
| 1787827290 | 23.33° C | 72% | 1014.1 hPa | 0 mm | - | 647 W/m² | - |
| 1787826917 | 22.78° C | 72% | 1014.2 hPa | 0 mm | - | 539 W/m² | - |
| 1787826318 | 22.78° C | 72% | 1014.2 hPa | 0 mm | - | 668 W/m² | - |
| 1787825491 | 22.78° C | 74% | 1014.2 hPa | 0 mm | - | 438 W/m² | - |
| 1787825118 | 22.78° C | 72% | 1014.3 hPa | 0 mm | - | 472 W/m² | - |
| 1787824518 | 22.78° C | 73% | 1014 hPa | 0 mm | - | 499 W/m² | - |
| 1787823691 | 22.78° C | 71% | 1014.1 hPa | 0 mm | - | 647 W/m² | - |
| 1787823318 | 22.22° C | 73% | 1013.8 hPa | 0 mm | - | 701 W/m² | - |
| 1787822717 | 22.22° C | 73% | 1014 hPa | 0 mm | - | 445 W/m² | - |
| 1787821891 | 22.22° C | 74% | 1014 hPa | 0 mm | - | 593 W/m² | - |
| 1787821517 | 21.67° C | 75% | 1014.3 hPa | 0 mm | - | 593 W/m² | - |
| 1787820918 | 21.67° C | 76% | 1014.3 hPa | 0 mm | - | 566 W/m² | - |
| 1787820091 | 21.11° C | 76% | 1014.4 hPa | 0 mm | - | 519 W/m² | - |
| 1787819718 | 20.56° C | 77% | 1014.5 hPa | 0 mm | - | 485 W/m² | - |
| 1787819118 | 20.56° C | 78% | 1014.5 hPa | 0 mm | - | 506 W/m² | - |
| 1787818291 | 20° C | 78% | 1014.6 hPa | 0 mm | - | 492 W/m² | - |
| 1787817917 | 20° C | 78% | 1014.6 hPa | 0 mm | - | 445 W/m² | - |
| 1787817317 | 20° C | 78% | 1014.6 hPa | 0 mm | - | 432 W/m² | - |
| 1787816490 | 20° C | 79% | 1014.4 hPa | 0 mm | - | 418 W/m² | - |
* Rain latest hour (hover to see other rain measurements)
** Current wind speed in m/s (hover to see current wind gust speed)